Weather in Lake Ladoga

Russia / Saint-Petersburg and Leningrad Oblast     60°00′00″N   31°17′20″E
temp.,
°C
wind,
m/s
gust,
m/s
humid.,
%
clouds,
%
prec.,
mm/h
press.,
hPa
HPBL,
m
8 may, sat
sat800:00+4s3393100 0.0 100531
03:00+4sse2293100 0.0 100428
06:00+4e2397100 1.8 100371
09:00+2n22100100 9.7 1002190
12:00+3wsw3798100 1.8 1002586
15:00+5wsw4694100 2.5 1004313
18:00+3w4998100 1.5 1006534
21:00+4w3693100 1.9 1008267
9 may, sun
sun900:00+2w499595 0.0 1008227
03:00+2w49916 0.0 1010206
06:00+2w510865 0.0 1011242
09:00+5w58720 0.0 1013333
12:00+8wnw45575 0.0 1015625
15:00+9w79470 0.0 1017604
18:00+9w355532 0.0 1018552
21:00+6ssw357790 0.0 101965
10 may, mon
mon1000:00+5ssw487797 0.0 1019107
03:00+4s3780100 0.0 1020126
06:00+6ssw51077100 0.0 1020271
09:00+6s61191100 1.0 1019316
12:00+9ssw578499 0.0 1020271
15:00+12ssw587764 0.0 1021314
18:00+15ssw476697 0.0 1021515
21:00+12s5880100 0.0 1022141
11 may, tue
tue1100:00+12ssw5108362 0.0 1023176
03:00+10ssw589052 0.0 1024147
06:00+10s5989100 0.0 1024159
09:00+13s697390 0.0 1025239
12:00+15s695575 0.0 1024394
15:00+17s69515 0.0 1024525
18:00+16s68570 0.0 1024448
21:00+13s46740 0.0 102470
12 may, wed
wed1200:00+11s47840 0.0 102587
03:00+9s46895 0.0 102580
06:00+9s35905 0.0 102578
09:00+13s45747 0.0 1025194
12:00+15sse465854 0.0 1025420
15:00+17sse454690 0.0 1024473
18:00+17sse34505 0.0 1023429
21:00+14se33660 0.0 102318